Location: Horowhenua
(40.7500°S, 175.3333°E)
Time: 15:28:36
(UTC+00:00)

SL-24 DEB - Pass Details

Date: 26 September 2023
Orbit: 654 x 688 km, 92.0° (Epoch: 01 December)

Event Time Altitude Azimuth Distance (km) Brightness Sun altitude
Rises 14:33:36 0° 156° (SSE) 3,022 8.4 -36.8°
Reaches altitude 10° 14:36:48 10° 132° (SE) 2,103 7.5 -36.3°
Maximum altitude 14:39:27 15° 97° (E) 1,783 6.9 -36.0°
Enters shadow 14:40:04 15° 88° (E) 1,801 6.8 -35.9°
